Time,TemperatureF,DewpointF,PressureIn,WindDirection,WindDirectionDegrees,WindSpeedMPH,WindSpeedGustMPH,Humidity,HourlyPrecipIn,Conditions,Clouds,dailyrainin,SoftwareType,DateUTC
2012-06-14 00:00:00,51.5,44.9,30.09,West,271,0.0,7.0,78,0.00,,,0.00,WUHU216DAVISVP2,2012-06-14 07:00:00,
2012-06-14 00:05:00,51.4,45.2,30.09,WSW,253,1.0,7.0,79,0.00,,,0.00,WUHU216DAVISVP2,2012-06-14 07:05:00,
2012-06-14 00:10:00,51.4,44.8,30.08,WSW,255,3.0,6.0,78,0.00,,,0.00,WUHU216DAVISVP2,2012-06-14 07:10:00,
2012-06-14 00:15:00,51.3,45.1,30.09,West,260,0.0,5.0,79,0.00,,,0.00,WUHU216DAVISVP2,2012-06-14 07:15:00,
2012-06-14 00:20:00,51.2,45.0,30.08,SW,229,0.0,5.0,79,0.00,,,0.00,WUHU216DAVISVP2,2012-06-14 07:20:00,
2012-06-14 00:25:00,51.2,45.0,30.08,WSW,239,3.0,5.0,79,0.00,,,0.00,WUHU216DAVISVP2,2012-06-14 07:25:00,
2012-06-14 00:30:00,51.0,45.1,30.08,West,259,1.0,5.0,80,0.00,,,0.00,WUHU216DAVISVP2,2012-06-14 07:30:00,
2012-06-14 00:35:00,50.9,44.7,30.08,WSW,255,0.0,5.0,79,0.00,,,0.00,WUHU216DAVISVP2,2012-06-14 07:35:00,
2012-06-14 00:40:00,50.9,44.7,30.08,WSW,252,0.0,5.0,79,0.00,,,0.00,WUHU216DAVISVP2,2012-06-14 07:40:00,
2012-06-14 00:45:00,50.8,44.6,30.08,WSW,248,0.0,5.0,79,0.00,,,0.00,WUHU216DAVISVP2,2012-06-14 07:45:00,
2012-06-14 00:50:00,50.7,44.8,30.08,SW,231,2.0,4.0,80,0.00,,,0.00,WUHU216DAVISVP2,2012-06-14 07:50:00,
2012-06-14 00:55:00,50.6,44.7,30.08,West,273,0.0,4.0,80,0.00,,,0.00,WUHU216DAVISVP2,2012-06-14 07:55:00,
2012-06-14 01:00:00,50.5,44.6,30.08,WSW,240,1.0,4.0,80,0.00,,,0.00,WUHU216DAVISVP2,2012-06-14 08:00:00,
2012-06-14 01:05:00,50.3,44.4,30.08,SW,233,0.0,4.0,80,0.00,,,0.00,WUHU216DAVISVP2,2012-06-14 08:05:00,
2012-06-14 01:10:00,50.2,44.6,30.07,WSW,257,1.0,5.0,81,0.00,,,0.00,WUHU216DAVISVP2,2012-06-14 08:10:00,
2012-06-14 01:15:00,50.2,44.6,30.07,SW,232,4.0,5.0,81,0.00,,,0.00,WUHU216DAVISVP2,2012-06-14 08:15:00,
2012-06-14 01:20:00,50.1,44.5,30.07,South,170,2.0,5.0,81,0.00,,,0.00,WUHU216DAVISVP2,2012-06-14 08:20:00,
2012-06-14 01:25:00,50.1,44.5,30.07,SW,231,2.0,5.0,81,0.00,,,0.00,WUHU216DAVISVP2,2012-06-14 08:25:00,
2012-06-14 01:30:00,50.0,44.4,30.07,SW,236,1.0,5.0,81,0.00,,,0.00,WUHU216DAVISVP2,2012-06-14 08:30:00,
2012-06-14 01:35:00,49.9,44.3,30.07,WSW,248,2.0,6.0,81,0.00,,,0.00,WUHU216DAVISVP2,2012-06-14 08:35:00,
2012-06-14 01:40:00,49.8,44.5,30.07,WSW,239,0.0,6.0,82,0.00,,,0.00,WUHU216DAVISVP2,2012-06-14 08:40:00,
2012-06-14 01:45:00,49.7,44.4,30.07,SSW,198,0.0,5.0,82,0.00,,,0.00,WUHU216DAVISVP2,2012-06-14 08:45:00,
2012-06-14 01:50:00,49.5,44.2,30.07,WSW,248,1.0,5.0,82,0.00,,,0.00,WUHU216DAVISVP2,2012-06-14 08:50:00,
2012-06-14 01:55:00,49.5,44.2,30.07,WSW,238,0.0,5.0,82,0.00,,,0.00,WUHU216DAVISVP2,2012-06-14 08:55:00,
2012-06-14 02:00:00,49.4,44.5,30.07,SW,229,0.0,3.0,83,0.00,,,0.00,WUHU216DAVISVP2,2012-06-14 09:00:00,
2012-06-14 02:05:00,49.4,44.5,30.07,SW,236,0.0,3.0,83,0.00,,,0.00,WUHU216DAVISVP2,2012-06-14 09:05:00,
2012-06-14 02:10:00,49.3,44.4,30.07,WSW,245,0.0,2.0,83,0.00,,,0.00,WUHU216DAVISVP2,2012-06-14 09:10:00,
2012-06-14 02:15:00,49.2,44.6,30.07,WSW,242,0.0,2.0,84,0.00,,,0.00,WUHU216DAVISVP2,2012-06-14 09:15:00,
2012-06-14 02:20:00,49.1,44.5,30.07,SW,217,0.0,2.0,84,0.00,,,0.00,WUHU216DAVISVP2,2012-06-14 09:20:00,
2012-06-14 02:25:00,49.0,44.7,30.06,SSW,211,1.0,2.0,85,0.00,,,0.00,WUHU216DAVISVP2,2012-06-14 09:25:00,
2012-06-14 02:30:00,49.0,45.0,30.06,WSW,252,0.0,2.0,86,0.00,,,0.00,WUHU216DAVISVP2,2012-06-14 09:30:00,
2012-06-14 02:35:00,48.8,44.8,30.06,WSW,238,2.0,4.0,86,0.00,,,0.00,WUHU216DAVISVP2,2012-06-14 09:35:00,
2012-06-14 02:40:00,48.7,44.7,30.06,WSW,240,1.0,4.0,86,0.00,,,0.00,WUHU216DAVISVP2,2012-06-14 09:40:00,
2012-06-14 02:45:00,48.6,44.9,30.06,SW,233,0.0,3.0,87,0.00,,,0.00,WUHU216DAVISVP2,2012-06-14 09:45:00,
2012-06-14 02:50:00,48.5,44.8,30.06,WSW,248,0.0,2.0,87,0.00,,,0.00,WUHU216DAVISVP2,2012-06-14 09:50:00,
2012-06-14 02:55:00,48.4,44.7,30.07,SW,234,0.0,2.0,87,0.00,,,0.00,WUHU216DAVISVP2,2012-06-14 09:55:00,
2012-06-14 03:00:00,48.3,44.9,30.06,WSW,250,0.0,1.0,88,0.00,,,0.00,WUHU216DAVISVP2,2012-06-14 10:00:00,
2012-06-14 03:05:00,48.2,44.8,30.06,SW,222,0.0,1.0,88,0.00,,,0.00,WUHU216DAVISVP2,2012-06-14 10:05:00,
2012-06-14 03:10:00,48.1,44.7,30.06,WSW,238,0.0,1.0,88,0.00,,,0.00,WUHU216DAVISVP2,2012-06-14 10:10:00,
2012-06-14 03:15:00,48.1,45.0,30.07,West,265,0.0,1.0,89,0.00,,,0.00,WUHU216DAVISVP2,2012-06-14 10:15:00,
2012-06-14 03:20:00,48.0,44.6,30.06,WSW,242,1.0,2.0,88,0.00,,,0.00,WUHU216DAVISVP2,2012-06-14 10:20:00,
2012-06-14 03:25:00,48.0,44.6,30.06,WSW,245,0.0,2.0,88,0.00,,,0.00,WUHU216DAVISVP2,2012-06-14 10:25:00,
2012-06-14 03:30:00,47.9,44.5,30.07,SW,226,0.0,2.0,88,0.00,,,0.00,WUHU216DAVISVP2,2012-06-14 10:30:00,
2012-06-14 03:35:00,47.9,44.5,30.07,South,188,0.0,2.0,88,0.00,,,0.00,WUHU216DAVISVP2,2012-06-14 10:35:00,
2012-06-14 03:40:00,47.8,44.4,30.07,SW,226,0.0,2.0,88,0.00,,,0.00,WUHU216DAVISVP2,2012-06-14 10:40:00,
2012-06-14 03:45:00,47.8,44.1,30.07,WSW,238,0.0,2.0,87,0.00,,,0.00,WUHU216DAVISVP2,2012-06-14 10:45:00,
2012-06-14 03:50:00,47.8,44.4,30.07,WSW,250,1.0,2.0,88,0.00,,,0.00,WUHU216DAVISVP2,2012-06-14 10:50:00,
2012-06-14 03:55:00,47.8,44.4,30.07,WSW,248,1.0,2.0,88,0.00,,,0.00,WUHU216DAVISVP2,2012-06-14 10:55:00,
2012-06-14 04:00:00,47.8,44.4,30.07,SW,224,1.0,3.0,88,0.00,,,0.00,WUHU216DAVISVP2,2012-06-14 11:00:00,
2012-06-14 04:05:00,47.8,44.4,30.06,WSW,249,0.0,3.0,88,0.00,,,0.00,WUHU216DAVISVP2,2012-06-14 11:05:00,
2012-06-14 04:10:00,47.8,44.4,30.06,SW,231,0.0,2.0,88,0.00,,,0.00,WUHU216DAVISVP2,2012-06-14 11:10:00,
2012-06-14 04:15:00,47.7,44.3,30.06,SSE,168,1.0,2.0,88,0.00,,,0.00,WUHU216DAVISVP2,2012-06-14 11:15:00,
2012-06-14 04:20:00,47.6,44.2,30.06,WSW,250,0.0,2.0,88,0.00,,,0.00,WUHU216DAVISVP2,2012-06-14 11:20:00,
2012-06-14 04:25:00,47.6,44.2,30.06,SSW,212,0.0,2.0,88,0.00,,,0.00,WUHU216DAVISVP2,2012-06-14 11:25:00,
2012-06-14 04:30:00,47.6,44.5,30.06,WSW,255,0.0,2.0,89,0.00,,,0.00,WUHU216DAVISVP2,2012-06-14 11:30:00,
2012-06-14 04:35:00,47.6,44.5,30.06,WSW,245,1.0,3.0,89,0.00,,,0.00,WUHU216DAVISVP2,2012-06-14 11:35:00,
2012-06-14 04:40:00,47.4,44.3,30.06,WSW,248,0.0,3.0,89,0.00,,,0.00,WUHU216DAVISVP2,2012-06-14 11:40:00,
2012-06-14 04:45:00,47.4,44.3,30.06,SW,219,0.0,3.0,89,0.00,,,0.00,WUHU216DAVISVP2,2012-06-14 11:45:00,
2012-06-14 04:50:00,47.3,44.2,30.06,SSW,204,0.0,3.0,89,0.00,,,0.00,WUHU216DAVISVP2,2012-06-14 11:50:00,
2012-06-14 04:55:00,47.2,44.4,30.06,SSW,194,1.0,2.0,90,0.00,,,0.00,WUHU216DAVISVP2,2012-06-14 11:55:00,
2012-06-14 05:00:00,47.1,44.3,30.06,SSW,211,1.0,2.0,90,0.00,,,0.00,WUHU216DAVISVP2,2012-06-14 12:00:00,
2012-06-14 05:05:00,47.1,44.3,30.06,West,259,0.0,2.0,90,0.00,,,0.00,WUHU216DAVISVP2,2012-06-14 12:05:00,
2012-06-14 05:10:00,47.0,44.2,30.06,SSW,204,0.0,1.0,90,0.00,,,0.00,WUHU216DAVISVP2,2012-06-14 12:10:00,
2012-06-14 05:15:00,47.0,44.2,30.06,SW,229,0.0,1.0,90,0.00,,,0.00,WUHU216DAVISVP2,2012-06-14 12:15:00,
2012-06-14 05:20:00,46.9,44.1,30.06,SW,221,0.0,1.0,90,0.00,,,0.00,WUHU216DAVISVP2,2012-06-14 12:20:00,
2012-06-14 05:25:00,46.9,44.4,30.07,SW,214,0.0,1.0,91,0.00,,,0.00,WUHU216DAVISVP2,2012-06-14 12:25:00,
2012-06-14 05:30:00,46.9,44.4,30.07,SW,214,0.0,1.0,91,0.00,,,0.00,WUHU216DAVISVP2,2012-06-14 12:30:00,
2012-06-14 05:35:00,47.0,44.5,30.07,SW,215,0.0,1.0,91,0.00,,,0.00,WUHU216DAVISVP2,2012-06-14 12:35:00,
2012-06-14 05:40:00,46.9,44.4,30.06,SW,215,0.0,1.0,91,0.00,,,0.00,WUHU216DAVISVP2,2012-06-14 12:40:00,
2012-06-14 05:45:00,46.9,44.4,30.07,SSW,193,0.0,1.0,91,0.00,,,0.00,WUHU216DAVISVP2,2012-06-14 12:45:00,
2012-06-14 05:50:00,46.9,44.1,30.07,WSW,239,1.0,2.0,90,0.00,,,0.00,WUHU216DAVISVP2,2012-06-14 12:50:00,
2012-06-14 05:55:00,47.0,44.2,30.07,WSW,252,0.0,3.0,90,0.00,,,0.00,WUHU216DAVISVP2,2012-06-14 12:55:00,
2012-06-14 06:00:00,47.0,43.9,30.07,SW,233,2.0,3.0,89,0.00,,,0.00,WUHU216DAVISVP2,2012-06-14 13:00:00,
2012-06-14 06:05:00,47.0,43.6,30.06,WSW,245,0.0,3.0,88,0.00,,,0.00,WUHU216DAVISVP2,2012-06-14 13:05:00,
2012-06-14 06:10:00,47.1,43.7,30.06,WSW,239,0.0,3.0,88,0.00,,,0.00,WUHU216DAVISVP2,2012-06-14 13:10:00,
2012-06-14 06:15:00,47.0,43.6,30.06,SW,214,0.0,2.0,88,0.00,,,0.00,WUHU216DAVISVP2,2012-06-14 13:15:00,
2012-06-14 06:20:00,47.1,44.0,30.06,WSW,239,0.0,1.0,89,0.00,,,0.00,WUHU216DAVISVP2,2012-06-14 13:20:00,
2012-06-14 06:25:00,47.1,44.0,30.06,WSW,239,0.0,1.0,89,0.00,,,0.00,WUHU216DAVISVP2,2012-06-14 13:25:00,
2012-06-14 06:30:00,47.1,43.7,30.06,SW,235,0.0,1.0,88,0.00,,,0.00,WUHU216DAVISVP2,2012-06-14 13:30:00,
2012-06-14 06:35:00,47.1,43.4,30.06,WSW,253,0.0,1.0,87,0.00,,,0.00,WUHU216DAVISVP2,2012-06-14 13:35:00,
2012-06-14 06:40:00,47.2,43.8,30.06,SW,232,0.0,2.0,88,0.00,,,0.00,WUHU216DAVISVP2,2012-06-14 13:40:00,
2012-06-14 06:45:00,47.2,43.8,30.06,WSW,250,0.0,2.0,88,0.00,,,0.00,WUHU216DAVISVP2,2012-06-14 13:45:00,
2012-06-14 06:50:00,47.3,43.9,30.06,WSW,250,0.0,1.0,88,0.00,,,0.00,WUHU216DAVISVP2,2012-06-14 13:50:00,
2012-06-14 06:55:00,47.4,43.7,30.06,WSW,250,0.0,2.0,87,0.00,,,0.00,WUHU216DAVISVP2,2012-06-14 13:55:00,
2012-06-14 07:00:00,47.4,43.7,30.06,WSW,250,0.0,2.0,87,0.00,,,0.00,WUHU216DAVISVP2,2012-06-14 14:00:00,
2012-06-14 07:05:00,47.4,43.4,30.06,WSW,240,1.0,1.0,86,0.00,,,0.00,WUHU216DAVISVP2,2012-06-14 14:05:00,
2012-06-14 07:10:00,47.5,43.5,30.06,WSW,238,0.0,1.0,86,0.00,,,0.00,WUHU216DAVISVP2,2012-06-14 14:10:00,
2012-06-14 07:15:00,47.6,43.6,30.06,WSW,239,0.0,1.0,86,0.00,,,0.00,WUHU216DAVISVP2,2012-06-14 14:15:00,
2012-06-14 07:20:00,47.6,43.6,30.06,SW,222,0.0,1.0,86,0.00,,,0.00,WUHU216DAVISVP2,2012-06-14 14:20:00,
2012-06-14 07:25:00,47.8,44.1,30.06,WSW,256,0.0,1.0,87,0.00,,,0.00,WUHU216DAVISVP2,2012-06-14 14:25:00,
2012-06-14 07:30:00,47.9,43.9,30.06,WSW,248,0.0,1.0,86,0.00,,,0.00,WUHU216DAVISVP2,2012-06-14 14:30:00,
2012-06-14 07:35:00,47.9,43.9,30.06,WSW,242,0.0,2.0,86,0.00,,,0.00,WUHU216DAVISVP2,2012-06-14 14:35:00,
2012-06-14 07:40:00,47.9,43.9,30.06,WNW,295,0.0,4.0,86,0.00,,,0.00,WUHU216DAVISVP2,2012-06-14 14:40:00,
2012-06-14 07:45:00,48.0,44.0,30.06,SW,225,0.0,4.0,86,0.00,,,0.00,WUHU216DAVISVP2,2012-06-14 14:45:00,
2012-06-14 07:50:00,48.1,44.1,30.06,SW,226,0.0,4.0,86,0.00,,,0.00,WUHU216DAVISVP2,2012-06-14 14:50:00,
2012-06-14 07:55:00,48.2,43.9,30.06,WSW,246,0.0,4.0,85,0.00,,,0.00,WUHU216DAVISVP2,2012-06-14 14:55:00,
2012-06-14 08:00:00,48.1,43.8,30.06,West,278,0.0,4.0,85,0.00,,,0.00,WUHU216DAVISVP2,2012-06-14 15:00:00,
2012-06-14 08:05:00,48.0,43.7,30.07,SW,226,0.0,4.0,85,0.00,,,0.00,WUHU216DAVISVP2,2012-06-14 15:05:00,
2012-06-14 08:10:00,48.0,43.7,30.06,WSW,240,0.0,4.0,85,0.00,,,0.00,WUHU216DAVISVP2,2012-06-14 15:10:00,
2012-06-14 08:15:00,48.1,43.5,30.06,NE,34,0.0,4.0,84,0.00,,,0.00,WUHU216DAVISVP2,2012-06-14 15:15:00,
2012-06-14 08:20:00,48.3,43.7,30.06,WNW,283,0.0,2.0,84,0.00,,,0.00,WUHU216DAVISVP2,2012-06-14 15:20:00,
2012-06-14 08:25:00,48.6,44.0,30.06,SW,220,0.0,1.0,84,0.00,,,0.00,WUHU216DAVISVP2,2012-06-14 15:25:00,
2012-06-14 08:30:00,48.9,44.3,30.06,SW,221,0.0,1.0,84,0.00,,,0.00,WUHU216DAVISVP2,2012-06-14 15:30:00,
2012-06-14 08:35:00,49.1,44.2,30.06,West,280,0.0,1.0,83,0.00,,,0.00,WUHU216DAVISVP2,2012-06-14 15:35:00,
2012-06-14 08:40:00,49.1,44.2,30.06,NNW,333,0.0,4.0,83,0.00,,,0.00,WUHU216DAVISVP2,2012-06-14 15:40:00,
2012-06-14 08:45:00,49.0,43.8,30.07,WNW,289,0.0,4.0,82,0.00,,,0.00,WUHU216DAVISVP2,2012-06-14 15:45:00,
2012-06-14 08:50:00,48.9,44.0,30.06,West,280,0.0,4.0,83,0.00,,,0.00,WUHU216DAVISVP2,2012-06-14 15:50:00,
2012-06-14 08:55:00,49.0,43.8,30.06,West,274,0.0,4.0,82,0.00,,,0.00,WUHU216DAVISVP2,2012-06-14 15:55:00,
2012-06-14 09:00:00,49.1,43.5,30.06,WNW,282,0.0,3.0,81,0.00,,,0.00,WUHU216DAVISVP2,2012-06-14 16:00:00,
2012-06-14 09:05:00,49.6,44.0,30.06,West,279,0.0,3.0,81,0.00,,,0.00,WUHU216DAVISVP2,2012-06-14 16:05:00,
2012-06-14 09:10:00,49.9,44.3,30.06,West,274,0.0,1.0,81,0.00,,,0.00,WUHU216DAVISVP2,2012-06-14 16:10:00,
2012-06-14 09:15:00,50.0,44.4,30.06,West,269,1.0,2.0,81,0.00,,,0.00,WUHU216DAVISVP2,2012-06-14 16:15:00,
2012-06-14 09:20:00,49.8,43.9,30.06,SW,222,0.0,3.0,80,0.00,,,0.00,WUHU216DAVISVP2,2012-06-14 16:20:00,
2012-06-14 09:25:00,49.7,44.1,30.06,NW,311,0.0,4.0,81,0.00,,,0.00,WUHU216DAVISVP2,2012-06-14 16:25:00,
2012-06-14 09:30:00,49.9,44.3,30.06,NNE,26,0.0,4.0,81,0.00,,,0.00,WUHU216DAVISVP2,2012-06-14 16:30:00,
2012-06-14 09:35:00,50.2,44.0,30.06,WNW,302,0.0,5.0,79,0.00,,,0.00,WUHU216DAVISVP2,2012-06-14 16:35:00,
2012-06-14 09:40:00,50.1,43.6,30.06,West,262,0.0,5.0,78,0.00,,,0.00,WUHU216DAVISVP2,2012-06-14 16:40:00,
2012-06-14 09:45:00,50.4,44.2,30.06,WSW,249,1.0,5.0,79,0.00,,,0.00,WUHU216DAVISVP2,2012-06-14 16:45:00,
2012-06-14 09:50:00,50.6,43.7,30.06,SW,236,1.0,5.0,77,0.00,,,0.00,WUHU216DAVISVP2,2012-06-14 16:50:00,
2012-06-14 09:55:00,50.8,43.9,30.06,SW,229,0.0,5.0,77,0.00,,,0.00,WUHU216DAVISVP2,2012-06-14 16:55:00,
2012-06-14 10:00:00,50.8,43.6,30.06,NW,309,1.0,5.0,76,0.00,,,0.00,WUHU216DAVISVP2,2012-06-14 17:00:00,
2012-06-14 10:05:00,50.7,43.5,30.06,WNW,293,0.0,4.0,76,0.00,,,0.00,WUHU216DAVISVP2,2012-06-14 17:05:00,
2012-06-14 10:10:00,50.7,43.8,30.06,NNW,336,0.0,4.0,77,0.00,,,0.00,WUHU216DAVISVP2,2012-06-14 17:10:00,
2012-06-14 10:15:00,50.8,43.6,30.06,NNW,342,1.0,4.0,76,0.00,,,0.00,WUHU216DAVISVP2,2012-06-14 17:15:00,
2012-06-14 10:20:00,51.1,43.9,30.06,WNW,302,0.0,4.0,76,0.00,,,0.00,WUHU216DAVISVP2,2012-06-14 17:20:00,
2012-06-14 10:25:00,51.5,44.3,30.06,ENE,73,0.0,4.0,76,0.00,,,0.00,WUHU216DAVISVP2,2012-06-14 17:25:00,
2012-06-14 10:30:00,52.1,43.8,30.06,SSW,195,0.0,3.0,73,0.00,,,0.00,WUHU216DAVISVP2,2012-06-14 17:30:00,
2012-06-14 10:35:00,52.3,44.3,30.06,SSW,194,0.0,3.0,74,0.00,,,0.00,WUHU216DAVISVP2,2012-06-14 17:35:00,
2012-06-14 10:40:00,52.8,44.5,30.06,WNW,283,0.0,2.0,73,0.00,,,0.00,WUHU216DAVISVP2,2012-06-14 17:40:00,
2012-06-14 10:45:00,53.5,44.4,30.05,ESE,112,0.0,2.0,71,0.00,,,0.00,WUHU216DAVISVP2,2012-06-14 17:45:00,
2012-06-14 10:50:00,53.7,44.3,30.06,SSW,213,1.0,3.0,70,0.00,,,0.00,WUHU216DAVISVP2,2012-06-14 17:50:00,
2012-06-14 10:55:00,53.6,44.5,30.06,SSE,166,1.0,3.0,71,0.00,,,0.00,WUHU216DAVISVP2,2012-06-14 17:55:00,
2012-06-14 11:00:00,53.8,44.4,30.05,SSW,212,0.0,3.0,70,0.00,,,0.00,WUHU216DAVISVP2,2012-06-14 18:00:00,
2012-06-14 11:05:00,54.0,44.6,30.05,West,270,1.0,3.0,70,0.00,,,0.00,WUHU216DAVISVP2,2012-06-14 18:05:00,
2012-06-14 11:10:00,54.3,44.8,30.05,NE,56,4.0,4.0,70,0.00,,,0.00,WUHU216DAVISVP2,2012-06-14 18:10:00,
2012-06-14 11:15:00,54.3,45.2,30.05,SSW,210,0.0,4.0,71,0.00,,,0.00,WUHU216DAVISVP2,2012-06-14 18:15:00,
2012-06-14 11:20:00,54.9,45.0,30.05,SW,235,1.0,4.0,69,0.00,,,0.00,WUHU216DAVISVP2,2012-06-14 18:20:00,
2012-06-14 11:25:00,55.2,44.9,30.05,WNW,288,0.0,3.0,68,0.00,,,0.00,WUHU216DAVISVP2,2012-06-14 18:25:00,
2012-06-14 11:30:00,54.9,45.0,30.05,NNE,19,0.0,3.0,69,0.00,,,0.00,WUHU216DAVISVP2,2012-06-14 18:30:00,
2012-06-14 11:35:00,55.1,44.9,30.05,East,93,2.0,3.0,68,0.00,,,0.00,WUHU216DAVISVP2,2012-06-14 18:35:00,
2012-06-14 11:40:00,55.4,45.9,30.05,SE,128,1.0,4.0,70,0.00,,,0.00,WUHU216DAVISVP2,2012-06-14 18:40:00,
2012-06-14 11:45:00,56.4,45.7,30.05,WSW,243,1.0,4.0,67,0.00,,,0.00,WUHU216DAVISVP2,2012-06-14 18:45:00,
2012-06-14 11:50:00,56.8,45.3,30.05,WNW,290,0.0,3.0,65,0.00,,,0.00,WUHU216DAVISVP2,2012-06-14 18:50:00,
2012-06-14 11:55:00,56.9,45.4,30.05,WNW,292,0.0,3.0,65,0.00,,,0.00,WUHU216DAVISVP2,2012-06-14 18:55:00,
2012-06-14 12:00:00,57.6,46.1,30.05,SSE,149,0.0,3.0,65,0.00,,,0.00,WUHU216DAVISVP2,2012-06-14 19:00:00,
2012-06-14 12:05:00,57.8,45.4,30.05,SE,136,0.0,3.0,63,0.00,,,0.00,WUHU216DAVISVP2,2012-06-14 19:05:00,
2012-06-14 12:10:00,58.1,46.5,30.05,WNW,295,0.0,3.0,65,0.00,,,0.00,WUHU216DAVISVP2,2012-06-14 19:10:00,
2012-06-14 12:15:00,58.8,45.5,30.05,WNW,293,0.0,3.0,61,0.00,,,0.00,WUHU216DAVISVP2,2012-06-14 19:15:00,
2012-06-14 12:20:00,58.5,46.1,30.05,NE,47,0.0,3.0,63,0.00,,,0.00,WUHU216DAVISVP2,2012-06-14 19:20:00,
2012-06-14 12:25:00,58.7,45.4,30.05,SSE,160,4.0,6.0,61,0.00,,,0.00,WUHU216DAVISVP2,2012-06-14 19:25:00,
2012-06-14 12:30:00,58.8,45.5,30.05,WNW,302,2.0,6.0,61,0.00,,,0.00,WUHU216DAVISVP2,2012-06-14 19:30:00,
2012-06-14 12:35:00,58.5,46.1,30.05,NW,315,0.0,6.0,63,0.00,,,0.00,WUHU216DAVISVP2,2012-06-14 19:35:00,
2012-06-14 12:40:00,58.6,45.8,30.05,WSW,248,4.0,5.0,62,0.00,,,0.00,WUHU216DAVISVP2,2012-06-14 19:40:00,
2012-06-14 12:45:00,59.0,47.0,30.05,WSW,246,3.0,5.0,64,0.00,,,0.00,WUHU216DAVISVP2,2012-06-14 19:45:00,
2012-06-14 12:50:00,58.9,45.6,30.05,SW,229,0.0,6.0,61,0.00,,,0.00,WUHU216DAVISVP2,2012-06-14 19:50:00,
2012-06-14 12:55:00,58.9,46.0,30.05,NE,40,1.0,7.0,62,0.00,,,0.00,WUHU216DAVISVP2,2012-06-14 19:55:00,
2012-06-14 13:00:00,58.8,45.9,30.05,WSW,239,4.0,7.0,62,0.00,,,0.00,WUHU216DAVISVP2,2012-06-14 20:00:00,
2012-06-14 13:05:00,58.5,45.7,30.05,West,270,2.0,7.0,62,0.00,,,0.00,WUHU216DAVISVP2,2012-06-14 20:05:00,
2012-06-14 13:10:00,58.7,46.3,30.05,West,266,0.0,7.0,63,0.00,,,0.00,WUHU216DAVISVP2,2012-06-14 20:10:00,
2012-06-14 13:15:00,58.9,46.9,30.05,WNW,285,0.0,7.0,64,0.00,,,0.00,WUHU216DAVISVP2,2012-06-14 20:15:00,
2012-06-14 13:20:00,58.9,46.9,30.05,NW,310,2.0,5.0,64,0.00,,,0.00,WUHU216DAVISVP2,2012-06-14 20:20:00,
2012-06-14 13:25:00,58.9,46.5,30.05,North,350,1.0,5.0,63,0.00,,,0.00,WUHU216DAVISVP2,2012-06-14 20:25:00,
2012-06-14 13:30:00,59.3,46.0,30.05,WNW,297,1.0,5.0,61,0.00,,,0.00,WUHU216DAVISVP2,2012-06-14 20:30:00,
2012-06-14 13:35:00,59.2,46.7,30.05,NNW,335,2.0,7.0,63,0.00,,,0.00,WUHU216DAVISVP2,2012-06-14 20:35:00,
2012-06-14 13:40:00,58.6,46.6,30.05,NW,322,2.0,7.0,64,0.00,,,0.00,WUHU216DAVISVP2,2012-06-14 20:40:00,
2012-06-14 13:45:00,58.6,45.8,30.05,East,80,1.0,7.0,62,0.00,,,0.00,WUHU216DAVISVP2,2012-06-14 20:45:00,
2012-06-14 13:50:00,58.7,46.3,30.05,NW,309,1.0,7.0,63,0.00,,,0.00,WUHU216DAVISVP2,2012-06-14 20:50:00,
2012-06-14 13:55:00,58.5,46.5,30.05,West,281,1.0,8.0,64,0.00,,,0.00,WUHU216DAVISVP2,2012-06-14 20:55:00,
2012-06-14 14:00:00,58.5,46.1,30.05,WNW,290,2.0,8.0,63,0.00,,,0.00,WUHU216DAVISVP2,2012-06-14 21:00:00,
2012-06-14 14:05:00,58.8,46.4,30.05,NW,316,4.0,8.0,63,0.00,,,0.00,WUHU216DAVISVP2,2012-06-14 21:05:00,
2012-06-14 14:10:00,58.8,46.8,30.05,West,269,0.0,7.0,64,0.00,,,0.00,WUHU216DAVISVP2,2012-06-14 21:10:00,
2012-06-14 14:15:00,59.3,45.5,30.05,WNW,284,1.0,9.0,60,0.00,,,0.00,WUHU216DAVISVP2,2012-06-14 21:15:00,
2012-06-14 14:20:00,59.4,46.5,30.05,West,278,4.0,9.0,62,0.00,,,0.00,WUHU216DAVISVP2,2012-06-14 21:20:00,
2012-06-14 14:25:00,59.1,46.2,30.05,North,352,3.0,9.0,62,0.00,,,0.00,WUHU216DAVISVP2,2012-06-14 21:25:00,
2012-06-14 14:30:00,59.2,46.3,30.05,West,274,3.0,9.0,62,0.00,,,0.00,WUHU216DAVISVP2,2012-06-14 21:30:00,
2012-06-14 14:35:00,60.0,46.2,30.05,West,277,3.0,9.0,60,0.00,,,0.00,WUHU216DAVISVP2,2012-06-14 21:35:00,
2012-06-14 14:40:00,59.7,45.9,30.06,West,269,3.0,10.0,60,0.00,,,0.00,WUHU216DAVISVP2,2012-06-14 21:40:00,
2012-06-14 14:45:00,60.2,46.4,30.06,West,272,3.0,10.0,60,0.00,,,0.00,WUHU216DAVISVP2,2012-06-14 21:45:00,
2012-06-14 14:50:00,59.9,46.1,30.06,NW,321,0.0,10.0,60,0.00,,,0.00,WUHU216DAVISVP2,2012-06-14 21:50:00,
2012-06-14 14:55:00,60.2,46.8,30.06,WNW,293,1.0,10.0,61,0.00,,,0.00,WUHU216DAVISVP2,2012-06-14 21:55:00,
2012-06-14 15:00:00,60.2,46.4,30.06,WNW,302,2.0,8.0,60,0.00,,,0.00,WUHU216DAVISVP2,2012-06-14 22:00:00,
2012-06-14 15:05:00,60.6,46.3,30.06,NNW,333,1.0,8.0,59,0.00,,,0.00,WUHU216DAVISVP2,2012-06-14 22:05:00,
2012-06-14 15:10:00,60.5,45.8,30.06,WNW,283,3.0,8.0,58,0.00,,,0.00,WUHU216DAVISVP2,2012-06-14 22:10:00,
2012-06-14 15:15:00,60.3,46.0,30.06,WNW,283,0.0,8.0,59,0.00,,,0.00,WUHU216DAVISVP2,2012-06-14 22:15:00,
2012-06-14 15:20:00,60.0,45.3,30.06,NW,309,9.0,9.0,58,0.00,,,0.00,WUHU216DAVISVP2,2012-06-14 22:20:00,
2012-06-14 15:25:00,59.9,45.7,30.06,NW,311,5.0,10.0,59,0.00,,,0.00,WUHU216DAVISVP2,2012-06-14 22:25:00,
2012-06-14 15:30:00,59.8,46.0,30.06,NNE,23,1.0,10.0,60,0.00,,,0.00,WUHU216DAVISVP2,2012-06-14 22:30:00,
2012-06-14 15:35:00,59.9,45.7,30.06,West,263,0.0,10.0,59,0.00,,,0.00,WUHU216DAVISVP2,2012-06-14 22:35:00,
2012-06-14 15:40:00,60.2,46.8,30.06,NW,316,2.0,8.0,61,0.00,,,0.00,WUHU216DAVISVP2,2012-06-14 22:40:00,
2012-06-14 15:45:00,59.9,45.7,30.06,WSW,248,2.0,8.0,59,0.00,,,0.00,WUHU216DAVISVP2,2012-06-14 22:45:00,
2012-06-14 15:50:00,60.4,46.1,30.05,NW,311,1.0,8.0,59,0.00,,,0.00,WUHU216DAVISVP2,2012-06-14 22:50:00,
2012-06-14 15:55:00,60.5,46.2,30.05,WSW,248,5.0,6.0,59,0.00,,,0.00,WUHU216DAVISVP2,2012-06-14 22:55:00,
2012-06-14 16:00:00,60.8,46.0,30.05,SE,142,1.0,7.0,58,0.00,,,0.00,WUHU216DAVISVP2,2012-06-14 23:00:00,
2012-06-14 16:05:00,61.2,46.0,30.05,WSW,252,4.0,8.0,57,0.00,,,0.00,WUHU216DAVISVP2,2012-06-14 23:05:00,
2012-06-14 16:10:00,61.7,45.9,30.05,SW,234,5.0,8.0,56,0.00,,,0.00,WUHU216DAVISVP2,2012-06-14 23:10:00,
2012-06-14 16:15:00,61.1,45.4,30.05,West,266,2.0,8.0,56,0.00,,,0.00,WUHU216DAVISVP2,2012-06-14 23:15:00,
2012-06-14 16:20:00,60.9,45.7,30.05,SW,232,2.0,8.0,57,0.00,,,0.00,WUHU216DAVISVP2,2012-06-14 23:20:00,
2012-06-14 16:25:00,61.2,46.4,30.05,WSW,242,0.0,8.0,58,0.00,,,0.00,WUHU216DAVISVP2,2012-06-14 23:25:00,
2012-06-14 16:30:00,61.7,46.9,30.05,West,278,1.0,6.0,58,0.00,,,0.00,WUHU216DAVISVP2,2012-06-14 23:30:00,
2012-06-14 16:35:00,61.8,46.0,30.05,WSW,248,2.0,6.0,56,0.00,,,0.00,WUHU216DAVISVP2,2012-06-14 23:35:00,
2012-06-14 16:40:00,61.7,46.4,30.05,WSW,249,1.0,5.0,57,0.00,,,0.00,WUHU216DAVISVP2,2012-06-14 23:40:00,
2012-06-14 16:45:00,61.8,46.5,30.05,West,271,1.0,5.0,57,0.00,,,0.00,WUHU216DAVISVP2,2012-06-14 23:45:00,
2012-06-14 16:50:00,62.0,45.7,30.05,WSW,257,0.0,7.0,55,0.00,,,0.00,WUHU216DAVISVP2,2012-06-14 23:50:00,
2012-06-14 16:55:00,62.3,45.0,30.05,SW,224,0.0,7.0,53,0.00,,,0.00,WUHU216DAVISVP2,2012-06-14 23:55:00,
2012-06-14 17:00:00,62.2,45.9,30.05,West,259,2.0,7.0,55,0.00,,,0.00,WUHU216DAVISVP2,2012-06-15 00:00:00,
2012-06-14 17:05:00,62.2,45.4,30.05,SW,229,3.0,8.0,54,0.00,,,0.00,WUHU216DAVISVP2,2012-06-15 00:05:00,
2012-06-14 17:10:00,61.5,45.3,30.05,NW,313,2.0,8.0,55,0.00,,,0.00,WUHU216DAVISVP2,2012-06-15 00:10:00,
2012-06-14 17:15:00,61.1,44.9,30.05,West,271,3.0,8.0,55,0.00,,,0.00,WUHU216DAVISVP2,2012-06-15 00:15:00,
2012-06-14 17:20:00,60.6,45.9,30.05,WNW,295,2.0,8.0,58,0.00,,,0.00,WUHU216DAVISVP2,2012-06-15 00:20:00,
2012-06-14 17:25:00,60.8,46.0,30.05,West,278,1.0,6.0,58,0.00,,,0.00,WUHU216DAVISVP2,2012-06-15 00:25:00,
2012-06-14 17:30:00,60.8,46.0,30.05,NNW,329,4.0,6.0,58,0.00,,,0.00,WUHU216DAVISVP2,2012-06-15 00:30:00,
2012-06-14 17:35:00,60.6,45.9,30.05,WNW,297,3.0,6.0,58,0.00,,,0.00,WUHU216DAVISVP2,2012-06-15 00:35:00,
2012-06-14 17:40:00,60.3,45.6,30.05,WNW,283,2.0,7.0,58,0.00,,,0.00,WUHU216DAVISVP2,2012-06-15 00:40:00,
2012-06-14 17:45:00,60.4,45.2,30.05,WSW,254,1.0,7.0,57,0.00,,,0.00,WUHU216DAVISVP2,2012-06-15 00:45:00,
2012-06-14 17:50:00,60.0,45.3,30.05,NNW,328,1.0,7.0,58,0.00,,,0.00,WUHU216DAVISVP2,2012-06-15 00:50:00,
2012-06-14 17:55:00,60.1,45.8,30.05,West,263,1.0,7.0,59,0.00,,,0.00,WUHU216DAVISVP2,2012-06-15 00:55:00,
2012-06-14 18:00:00,60.1,45.8,30.05,NNW,341,5.0,7.0,59,0.00,,,0.00,WUHU216DAVISVP2,2012-06-15 01:00:00,
2012-06-14 18:05:00,60.3,46.0,30.05,West,273,0.0,7.0,59,0.00,,,0.00,WUHU216DAVISVP2,2012-06-15 01:05:00,
2012-06-14 18:10:00,60.7,46.0,30.05,NW,321,3.0,7.0,58,0.00,,,0.00,WUHU216DAVISVP2,2012-06-15 01:10:00,
2012-06-14 18:15:00,60.2,45.5,30.05,NNE,17,0.0,7.0,58,0.00,,,0.00,WUHU216DAVISVP2,2012-06-15 01:15:00,
2012-06-14 18:20:00,59.9,44.7,30.05,West,276,2.0,7.0,57,0.00,,,0.00,WUHU216DAVISVP2,2012-06-15 01:20:00,
2012-06-14 18:25:00,59.8,45.6,30.05,West,271,1.0,7.0,59,0.00,,,0.00,WUHU216DAVISVP2,2012-06-15 01:25:00,
2012-06-14 18:30:00,59.7,45.0,30.05,NNW,336,0.0,7.0,58,0.00,,,0.00,WUHU216DAVISVP2,2012-06-15 01:30:00,
2012-06-14 18:35:00,59.9,45.7,30.05,NW,312,2.0,7.0,59,0.00,,,0.00,WUHU216DAVISVP2,2012-06-15 01:35:00,
2012-06-14 18:40:00,59.8,44.6,30.05,NNW,331,1.0,7.0,57,0.00,,,0.00,WUHU216DAVISVP2,2012-06-15 01:40:00,
2012-06-14 18:45:00,59.6,45.8,30.05,WSW,248,0.0,4.0,60,0.00,,,0.00,WUHU216DAVISVP2,2012-06-15 01:45:00,
2012-06-14 18:50:00,59.6,45.8,30.05,NW,311,2.0,8.0,60,0.00,,,0.00,WUHU216DAVISVP2,2012-06-15 01:50:00,
2012-06-14 18:55:00,58.9,46.0,30.05,NW,307,1.0,9.0,62,0.00,,,0.00,WUHU216DAVISVP2,2012-06-15 01:55:00,
2012-06-14 19:00:00,58.5,45.7,30.05,WNW,302,3.0,9.0,62,0.00,,,0.00,WUHU216DAVISVP2,2012-06-15 02:00:00,
2012-06-14 19:05:00,58.1,45.7,30.05,West,265,0.0,9.0,63,0.00,,,0.00,WUHU216DAVISVP2,2012-06-15 02:05:00,
2012-06-14 19:10:00,57.9,45.9,30.05,West,275,1.0,9.0,64,0.00,,,0.00,WUHU216DAVISVP2,2012-06-15 02:10:00,
2012-06-14 19:15:00,57.8,45.8,30.05,NW,316,3.0,7.0,64,0.00,,,0.00,WUHU216DAVISVP2,2012-06-15 02:15:00,
2012-06-14 19:20:00,57.9,46.3,30.05,NW,321,2.0,7.0,65,0.00,,,0.00,WUHU216DAVISVP2,2012-06-15 02:20:00,
2012-06-14 19:25:00,57.7,45.7,30.05,NW,314,3.0,7.0,64,0.00,,,0.00,WUHU216DAVISVP2,2012-06-15 02:25:00,
2012-06-14 19:30:00,57.6,46.5,30.05,WNW,303,2.0,7.0,66,0.00,,,0.00,WUHU216DAVISVP2,2012-06-15 02:30:00,
2012-06-14 19:35:00,57.3,46.2,30.05,NNW,328,1.0,7.0,66,0.00,,,0.00,WUHU216DAVISVP2,2012-06-15 02:35:00,
2012-06-14 19:40:00,57.2,46.1,30.05,NNW,335,0.0,7.0,66,0.00,,,0.00,WUHU216DAVISVP2,2012-06-15 02:40:00,
2012-06-14 19:45:00,57.2,46.1,30.05,ENE,67,1.0,6.0,66,0.00,,,0.00,WUHU216DAVISVP2,2012-06-15 02:45:00,
2012-06-14 19:50:00,57.0,46.3,30.05,NNW,345,3.0,6.0,67,0.00,,,0.00,WUHU216DAVISVP2,2012-06-15 02:50:00,
2012-06-14 19:55:00,56.8,46.1,30.05,NNW,339,0.0,4.0,67,0.00,,,0.00,WUHU216DAVISVP2,2012-06-15 02:55:00,
2012-06-14 20:00:00,56.7,46.4,30.05,NNW,328,0.0,4.0,68,0.00,,,0.00,WUHU216DAVISVP2,2012-06-15 03:00:00,
2012-06-14 20:05:00,56.7,46.8,30.05,NE,41,0.0,4.0,69,0.00,,,0.00,WUHU216DAVISVP2,2012-06-15 03:05:00,
2012-06-14 20:10:00,56.6,46.3,30.05,ENE,72,1.0,4.0,68,0.00,,,0.00,WUHU216DAVISVP2,2012-06-15 03:10:00,
2012-06-14 20:15:00,56.3,46.0,30.05,NE,41,1.0,5.0,68,0.00,,,0.00,WUHU216DAVISVP2,2012-06-15 03:15:00,
2012-06-14 20:20:00,56.2,45.9,30.05,NW,323,0.0,5.0,68,0.00,,,0.00,WUHU216DAVISVP2,2012-06-15 03:20:00,
2012-06-14 20:25:00,56.1,45.8,30.05,North,8,2.0,5.0,68,0.00,,,0.00,WUHU216DAVISVP2,2012-06-15 03:25:00,
2012-06-14 20:30:00,56.0,46.1,30.05,NE,37,1.0,4.0,69,0.00,,,0.00,WUHU216DAVISVP2,2012-06-15 03:30:00,
2012-06-14 20:35:00,56.0,46.1,30.05,NNW,333,2.0,4.0,69,0.00,,,0.00,WUHU216DAVISVP2,2012-06-15 03:35:00,
2012-06-14 20:40:00,55.9,46.0,30.05,NE,56,2.0,4.0,69,0.00,,,0.00,WUHU216DAVISVP2,2012-06-15 03:40:00,
2012-06-14 20:45:00,55.8,46.3,30.05,NNE,22,0.0,4.0,70,0.00,,,0.00,WUHU216DAVISVP2,2012-06-15 03:45:00,
2012-06-14 20:50:00,55.8,46.3,30.05,North,359,0.0,4.0,70,0.00,,,0.00,WUHU216DAVISVP2,2012-06-15 03:50:00,
2012-06-14 20:55:00,55.6,46.1,30.05,NNW,341,2.0,4.0,70,0.00,,,0.00,WUHU216DAVISVP2,2012-06-15 03:55:00,
2012-06-14 21:00:00,55.5,46.4,30.06,North,360,1.0,4.0,71,0.00,,,0.00,WUHU216DAVISVP2,2012-06-15 04:00:00,
2012-06-14 21:05:00,55.4,46.3,30.05,NNE,22,1.0,4.0,71,0.00,,,0.00,WUHU216DAVISVP2,2012-06-15 04:05:00,
2012-06-14 21:10:00,55.4,46.3,30.06,NNW,333,0.0,4.0,71,0.00,,,0.00,WUHU216DAVISVP2,2012-06-15 04:10:00,
2012-06-14 21:15:00,55.3,46.5,30.06,NNW,333,0.0,3.0,72,0.00,,,0.00,WUHU216DAVISVP2,2012-06-15 04:15:00,
2012-06-14 21:20:00,55.2,46.4,30.06,NNW,333,0.0,2.0,72,0.00,,,0.00,WUHU216DAVISVP2,2012-06-15 04:20:00,
2012-06-14 21:25:00,55.2,46.8,30.06,NE,56,0.0,2.0,73,0.00,,,0.00,WUHU216DAVISVP2,2012-06-15 04:25:00,
2012-06-14 21:30:00,55.2,46.8,30.06,ENE,65,0.0,1.0,73,0.00,,,0.00,WUHU216DAVISVP2,2012-06-15 04:30:00,
2012-06-14 21:35:00,55.1,47.1,30.07,NE,46,1.0,4.0,74,0.00,,,0.00,WUHU216DAVISVP2,2012-06-15 04:35:00,
2012-06-14 21:40:00,55.0,47.3,30.07,NNE,32,1.0,4.0,75,0.00,,,0.00,WUHU216DAVISVP2,2012-06-15 04:40:00,
2012-06-14 21:45:00,54.9,47.2,30.07,NNW,342,0.0,4.0,75,0.00,,,0.00,WUHU216DAVISVP2,2012-06-15 04:45:00,
2012-06-14 21:50:00,54.8,47.5,30.07,ENE,72,0.0,4.0,76,0.00,,,0.00,WUHU216DAVISVP2,2012-06-15 04:50:00,
2012-06-14 21:55:00,54.8,47.5,30.07,NNE,20,0.0,4.0,76,0.00,,,0.00,WUHU216DAVISVP2,2012-06-15 04:55:00,
2012-06-14 22:00:00,54.7,47.4,30.07,NE,40,0.0,1.0,76,0.00,,,0.00,WUHU216DAVISVP2,2012-06-15 05:00:00,
2012-06-14 22:05:00,54.6,47.6,30.07,NE,49,0.0,2.0,77,0.00,,,0.00,WUHU216DAVISVP2,2012-06-15 05:05:00,
2012-06-14 22:10:00,54.5,47.5,30.07,East,80,0.0,2.0,77,0.00,,,0.00,WUHU216DAVISVP2,2012-06-15 05:10:00,
2012-06-14 22:15:00,54.4,47.7,30.07,NE,52,0.0,2.0,78,0.00,,,0.00,WUHU216DAVISVP2,2012-06-15 05:15:00,
2012-06-14 22:20:00,54.4,47.7,30.07,NE,52,0.0,2.0,78,0.00,,,0.00,WUHU216DAVISVP2,2012-06-15 05:20:00,
2012-06-14 22:25:00,54.3,47.6,30.07,NE,53,0.0,1.0,78,0.00,,,0.00,WUHU216DAVISVP2,2012-06-15 05:25:00,
2012-06-14 22:30:00,54.2,47.5,30.07,NE,53,0.0,0.0,78,0.00,,,0.00,WUHU216DAVISVP2,2012-06-15 05:30:00,
2012-06-14 22:35:00,54.2,47.9,30.07,NE,52,0.0,0.0,79,0.00,,,0.00,WUHU216DAVISVP2,2012-06-15 05:35:00,
2012-06-14 22:40:00,54.0,48.0,30.07,NE,53,0.0,1.0,80,0.00,,,0.00,WUHU216DAVISVP2,2012-06-15 05:40:00,
2012-06-14 22:45:00,53.8,48.1,30.07,ENE,69,0.0,1.0,81,0.00,,,0.00,WUHU216DAVISVP2,2012-06-15 05:45:00,
2012-06-14 22:50:00,53.4,47.7,30.07,ENE,70,0.0,1.0,81,0.00,,,0.00,WUHU216DAVISVP2,2012-06-15 05:50:00,
2012-06-14 22:55:00,53.1,47.8,30.07,ENE,70,0.0,1.0,82,0.00,,,0.00,WUHU216DAVISVP2,2012-06-15 05:55:00,
2012-06-14 23:00:00,52.9,47.6,30.07,ENE,69,0.0,1.0,82,0.00,,,0.00,WUHU216DAVISVP2,2012-06-15 06:00:00,
2012-06-14 23:05:00,52.7,47.4,30.07,ENE,69,0.0,0.0,82,0.00,,,0.00,WUHU216DAVISVP2,2012-06-15 06:05:00,
2012-06-14 23:10:00,52.5,47.5,30.07,ENE,70,0.0,0.0,83,0.00,,,0.00,WUHU216DAVISVP2,2012-06-15 06:10:00,
2012-06-14 23:15:00,52.3,47.3,30.07,ENE,69,0.0,0.0,83,0.00,,,0.00,WUHU216DAVISVP2,2012-06-15 06:15:00,
2012-06-14 23:20:00,52.1,47.4,30.07,SE,131,0.0,1.0,84,0.00,,,0.00,WUHU216DAVISVP2,2012-06-15 06:20:00,
2012-06-14 23:25:00,51.9,47.5,30.07,ESE,111,0.0,1.0,85,0.00,,,0.00,WUHU216DAVISVP2,2012-06-15 06:25:00,
2012-06-14 23:30:00,51.7,47.3,30.07,ESE,112,0.0,1.0,85,0.00,,,0.00,WUHU216DAVISVP2,2012-06-15 06:30:00,
2012-06-14 23:35:00,51.4,47.0,30.07,ESE,111,0.0,1.0,85,0.00,,,0.00,WUHU216DAVISVP2,2012-06-15 06:35:00,
2012-06-14 23:40:00,51.1,47.0,30.08,ESE,119,0.0,1.0,86,0.00,,,0.00,WUHU216DAVISVP2,2012-06-15 06:40:00,
2012-06-14 23:45:00,50.9,46.8,30.08,ESE,120,0.0,1.0,86,0.00,,,0.00,WUHU216DAVISVP2,2012-06-15 06:45:00,
2012-06-14 23:50:00,50.6,46.9,30.08,ESE,120,0.0,1.0,87,0.00,,,0.00,WUHU216DAVISVP2,2012-06-15 06:50:00,
2012-06-14 23:55:00,50.2,46.5,30.08,ESE,120,0.0,1.0,87,0.00,,,0.00,WUHU216DAVISVP2,2012-06-15 06:55:00,